Theta_e
301 301 303 304 305 308 311 305 296 307 309 295 295 293 293 298 297 299 298 297 296 294 295 294 293 292 294 298 295 291 291 288 282 283 287 287 287 286 286 282 280 280 282 284
300 300 300 302 303 306 302 300 298 306 306 291 292 294 296 297 296 296 297 295 297 297 293 289 292 293 298 300 296 292 292 285 280 282 286 285 285 285 287 287 283 281 279 282
300 299 299 299 300 303 300 297 291 296 298 299 295 293 293 293 298 296 297 295 297 294 292 295 292 293 296 298 297 298 297 287 284 282 285 287 283 283 285 286 281 283 283 285
301 299 299 299 299 300 299 292 288 293 288 291 293 294 292 291 291 296 297 294 294 292 289 290 290 294 294 296 296 294 293 285 286 287 289 288 287 286 287 285 286 282 285 286
299 300 299 299 299 299 293 287 287 290 291 293 292 291 289 289 291 291 290 290 292 293 290 291 289 291 292 291 291 292 293 286 288 285 288 287 285 288 288 288 288 287 287 287
299 299 299 299 298 298 289 291 291 290 285 284 285 286 288 289 291 293 293 289 287 287 290 290 291 291 292 292 291 290 289 286 285 282 287 286 282 286 288 288 289 288 284 289
299 299 299 298 299 298 292 290 291 287 279 282 282 285 285 285 287 286 288 287 285 289 293 292 290 289 290 291 292 293 287 285 285 282 284 276 285 290 290 288 290 291 291 292
299 298 298 298 298 299 293 292 290 285 277 281 281 282 282 282 283 282 284 285 289 289 287 282 280 279 282 285 289 290 292 288 283 280 280 283 286 286 287 286 286 291 291 293
299 299 299 299 299 299 292 290 293 288 280 276 283 280 281 274 274 275 280 285 284 286 280 273 269 271 276 279 281 286 289 290 285 282 277 274 285 289 292 292 282 284 285 285
299 299 299 299 299 299 293 289 292 288 281 282 282 278 278 281 279 272 272 274 276 281 273 269 270 270 277 272 273 276 280 282 280 281 279 280 284 286 290 280 276 284 284 284
299 298 298 299 299 299 294 289 293 289 283 283 284 285 279 280 277 269 271 273 272 272 269 266 273 269 274 271 274 273 274 273 273 277 276 274 285 284 275 278 284 283 282 282
298 298 298 298 298 298 297 286 292 293 286 283 288 288 289 287 285 278 273 274 268 274 268 265 265 265 268 269 266 277 271 275 271 273 273 278 283 280 282 286 282 281 281 282
298 297 298 297 297 298 296 287 288 287 284 283 284 282 287 290 288 290 278 273 282 279 280 269 268 260 271 262 263 268 273 276 273 272 276 277 278 281 283 282 280 280 280 279
296 297 297 297 296 297 297 288 289 287 284 277 277 284 284 289 288 288 287 285 283 282 279 274 268 264 275 267 271 270 273 275 270 271 275 276 278 280 279 279 277 276 276 277
296 296 296 296 296 297 295 290 289 290 284 275 278 280 283 285 286 285 286 284 282 279 276 271 267 273 274 273 275 272 276 274 271 269 276 274 275 276 277 273 272 272 273 272
295 296 295 296 296 296 289 280 287 291 289 281 275 280 276 283 284 283 283 284 282 280 278 276 277 279 275 269 261 275 277 278 278 275 273 272 274 276 276 272 271 271 271 271
295 295 295 296 296 292 285 279 285 292 291 281 275 271 275 281 279 276 279 280 280 279 278 277 277 277 277 273 269 276 278 278 274 273 271 273 272 271 272 271 271 270 268 269
294 295 295 295 295 293 286 289 293 291 286 283 274 273 275 280 273 272 279 278 279 279 278 276 275 276 276 271 275 277 277 271 271 270 270 269 270 269 270 269 268 265 265 266
294 294 294 289 285 280 283 292 293 291 284 276 275 266 263 276 274 275 273 278 271 279 274 275 272 272 268 271 275 275 269 268 266 266 265 266 265 264 265 264 263 262 263 263
294 289 283 275 284 291 290 287 282 282 282 280 274 266 265 275 272 270 273 275 272 269 268 275 271 270 276 274 266 266 265 264 263 260 260 259 259 260 261 261 262 262 262 261
286 281 279 280 291 282 281 276 275 276 270 275 268 274 271 276 269 270 276 272 272 267 265 263 254 257 271 264 262 262 263 262 261 260 260 260 259 259 259 259 259 259 259 259
285 283 286 285 281 277 273 272 273 272 266 262 265 267 271 270 275 271 273 269 268 264 259 259 256 268 259 257 257 258 259 257 256 257 257 258 258 258 257 257 257 258 258 258
286 281 276 276 276 270 267 265 264 257 260 261 262 264 270 269 274 271 269 267 266 261 259 259 261 258 256 254 255 255 256 255 255 255 256 255 255 256 256 256 257 257 257 257
278 275 270 269 267 270 269 267 262 264 262 262 263 260 267 262 270 272 267 270 267 263 260 258 250 252 250 253 255 254 254 254 254 253 253 253 254 255 256 256 256 257 256 257
276 274 267 269 270 262 259 260 260 263 264 267 265 262 272 260 265 270 265 262 259 260 258 250 251 253 253 254 254 253 252 252 252 252 252 254 254 254 255 257 258 258 258 258
275 271 267 257 262 260 260 259 258 262 264 264 263 263 266 263 263 262 261 258 257 257 244 247 252 252 252 251 251 251 252 251 251 252 253 253 254 255 256 257 257 257 258 258
269 255 253 253 254 255 252 252 258 262 258 258 262 262 262 265 261 258 251 254 246 246 249 248 250 249 250 250 250 251 251 251 252 253 253 254 256 257 256 255 256 257 257 257
Wind_Speed
9 10 12 10 9 15 3 3 4 6 11 4 4 11 6 7 11 6 10 4 8 12 9 12 12 13 16 12 4 13 2 6 5 8 8 6 6 6 7 10 11 4 7 17
6 8 9 11 11 10 3 4 3 4 4 8 9 4 7 9 14 14 6 9 9 11 13 11 11 13 13 17 12 8 3 3 4 13 10 3 6 8 8 6 2 9 12 16
10 9 7 8 9 10 2 3 4 3 3 4 10 18 19 18 11 18 17 17 15 13 20 18 13 17 14 15 15 15 13 12 10 16 19 7 5 5 8 10 8 19 20 29
10 11 9 9 7 7 2 3 5 5 5 11 14 14 13 20 22 14 14 10 22 25 24 28 30 27 28 19 12 10 14 13 20 27 29 28 25 26 28 26 25 22 28 29
11 12 11 8 6 6 2 3 2 5 5 5 8 14 18 21 22 13 22 23 24 20 25 28 28 24 21 23 6 24 16 24 22 25 29 31 34 35 36 36 35 29 32 31
13 11 11 9 5 0 2 3 2 1 6 3 4 11 13 11 5 7 6 9 9 7 13 15 16 19 19 19 13 7 10 8 11 26 24 25 25 32 37 30 26 25 30 36
14 14 12 11 8 6 3 1 1 3 7 6 9 9 7 10 7 5 7 8 9 5 17 16 14 13 20 21 21 18 23 17 10 15 14 24 10 15 28 34 32 32 35 34
15 14 12 13 12 11 3 3 2 3 6 6 9 9 9 6 5 4 8 7 4 6 5 10 13 13 17 17 18 17 20 16 11 13 15 19 12 7 17 21 31 26 29 28
16 18 16 15 15 13 4 4 4 2 3 7 2 2 1 2 2 4 7 2 2 4 2 3 8 13 20 10 8 4 12 20 20 21 27 33 24 11 12 20 20 22 16 19
18 16 16 17 16 16 5 4 6 3 4 8 8 8 7 5 2 3 2 4 7 1 2 6 11 14 11 13 16 16 15 10 17 16 15 5 10 19 10 9 9 20 15 16
19 18 16 16 18 17 9 4 7 6 5 11 7 5 5 2 3 4 5 5 3 2 2 3 3 3 3 6 10 13 8 6 11 13 21 24 22 8 10 16 14 12 15 13
20 19 18 17 18 18 14 4 4 5 6 5 2 8 15 13 14 4 5 7 6 4 2 2 3 6 5 12 14 10 9 3 5 5 9 22 15 18 13 0 6 8 12 15
20 21 19 20 20 18 16 4 4 2 4 9 11 12 15 10 10 12 7 3 7 5 5 5 4 4 2 2 5 6 5 12 9 12 12 20 25 17 8 12 10 10 10 13
23 21 22 19 19 19 17 4 5 4 3 5 10 3 7 13 13 16 14 16 4 2 3 3 4 4 5 5 7 6 8 11 7 16 18 15 12 10 12 8 10 12 13 12
22 22 21 21 21 20 11 4 6 7 6 3 3 1 6 5 8 13 14 15 12 6 5 3 4 4 6 7 7 10 12 17 13 16 19 10 16 11 5 7 8 9 13 16
21 20 20 20 20 19 3 3 4 10 10 5 5 4 4 10 16 14 12 12 9 6 5 5 5 12 5 5 5 11 15 19 17 17 5 7 13 10 3 13 14 13 13 13
21 21 21 20 20 8 5 5 4 5 7 5 4 4 5 6 5 3 5 5 5 5 5 7 12 10 9 9 14 19 20 18 2 1 5 10 3 9 16 13 17 18 18 15
21 20 20 18 19 15 10 8 14 5 3 4 4 2 2 3 2 3 4 5 5 6 7 4 8 6 7 9 13 18 12 3 7 3 4 9 15 15 15 13 12 18 19 19
20 18 15 5 2 3 6 15 18 8 7 4 4 6 6 2 2 2 2 3 3 3 6 9 4 6 7 11 16 10 3 1 6 8 7 9 7 15 15 14 15 16 20 19
17 5 3 2 5 4 5 4 5 8 5 5 3 2 3 4 3 1 2 3 4 4 6 1 7 13 15 7 8 8 7 8 9 7 7 11 16 13 19 18 15 16 19 22
4 4 5 3 5 3 2 5 6 4 3 4 5 5 5 4 5 7 5 3 3 4 7 7 3 4 2 8 9 9 9 9 8 7 11 12 14 18 20 23 19 18 19 20
6 5 4 2 4 4 6 4 1 3 7 3 4 5 4 2 3 3 3 4 2 5 2 5 3 6 6 9 8 9 10 10 11 9 13 16 17 16 19 20 20 20 20 19
3 3 3 4 4 7 7 8 2 1 3 3 1 2 3 3 1 2 2 5 6 2 2 6 5 5 6 6 7 8 8 9 12 14 13 14 17 16 17 20 19 20 19 18
4 5 7 6 4 4 3 4 4 2 1 2 3 1 3 2 2 4 4 5 3 4 3 8 1 3 6 6 7 9 14 13 14 15 15 16 16 16 16 16 17 18 18 18
3 4 5 4 3 3 2 2 3 3 3 3 2 3 1 2 1 3 1 3 5 6 6 1 3 6 8 10 10 11 13 14 14 14 15 16 16 16 16 15 14 15 16 16
3 3 4 2 4 1 3 3 2 4 3 2 2 1 1 5 4 4 7 5 7 4 1 3 6 9 9 10 10 12 13 13 14 14 14 15 15 16 16 15 12 12 12 11
4 1 3 3 4 3 2 0 1 4 2 2 1 4 9 3 3 4 1 4 1 2 5 3 6 9 12 11 12 12 12 13 13 13 13 13 14 12 11 11 12 11 9 8
Wind_Direction
359 350 342 333 351 337 238 231 242 157 154 187 207 229 214 215 249 226 235 241 265 257 271 272 256 228 216 262 73 310 230 298 298 237 281 192 157 218 228 246 265 240 278 269
314 338 349 348 358 10 328 244 202 195 203 218 224 204 255 226 252 246 210 225 220 244 249 253 223 236 247 252 237 200 162 195 278 319 304 251 202 200 203 230 130 241 263 265
303 308 323 336 342 350 332 285 231 174 218 245 247 252 251 249 225 249 244 257 262 258 259 257 262 255 243 224 235 190 193 201 197 233 237 236 264 259 258 248 247 256 248 258
307 298 308 307 322 338 313 251 255 204 210 229 234 246 263 261 262 243 248 229 234 248 264 263 260 251 257 251 229 192 187 234 216 227 241 257 253 252 257 254 251 246 252 250
274 286 294 300 304 318 265 266 309 351 299 298 230 220 240 254 264 255 270 273 281 281 267 264 272 286 254 240 240 220 221 248 236 235 228 229 240 250 251 252 249 253 256 260
271 264 277 272 268 243 254 276 7 292 273 307 292 258 265 272 349 273 292 359 331 314 298 318 298 284 278 276 298 298 254 253 222 242 232 238 242 239 245 250 253 247 249 248
274 268 262 268 257 232 177 255 356 261 259 221 242 307 312 303 299 304 283 303 297 297 315 301 287 279 268 253 257 248 261 258 256 267 255 238 235 215 228 240 246 251 254 258
267 265 266 256 251 255 190 196 183 240 269 260 274 271 272 286 310 270 277 283 294 316 289 297 293 303 297 271 232 230 228 248 259 261 256 278 268 227 223 230 248 267 281 278
251 259 265 257 248 241 206 207 178 197 277 254 212 306 47 261 241 297 240 246 300 2 303 342 271 273 285 264 306 246 270 242 249 256 258 263 280 334 278 262 260 356 344 355
268 262 261 261 256 241 217 220 189 186 251 261 229 243 247 184 152 218 330 330 328 221 210 260 265 266 294 269 280 290 285 290 270 263 265 267 18 348 316 246 339 313 6 9
259 261 259 262 256 247 235 224 192 204 252 263 232 209 166 200 130 153 252 14 323 325 180 170 262 287 5 322 330 314 278 296 284 292 267 273 9 11 22 307 307 347 341 332
261 257 260 260 262 251 242 217 194 193 223 269 224 242 247 238 232 183 214 203 173 221 88 356 23 331 320 296 282 272 280 326 308 315 322 317 299 310 318 182 325 322 322 342
261 259 256 260 264 259 242 197 180 145 242 262 244 238 232 234 219 204 210 249 212 222 165 174 210 213 176 228 266 281 280 285 280 316 294 296 298 311 358 357 351 346 334 308
259 259 258 261 263 260 249 184 183 175 217 243 267 308 226 232 223 220 219 244 242 188 145 178 180 178 207 233 241 233 248 290 252 276 281 286 278 306 347 351 350 336 323 321
261 259 257 258 257 255 251 203 197 199 207 259 253 266 235 220 210 205 206 214 225 210 216 189 216 231 231 238 255 254 250 257 265 272 284 293 295 323 334 350 323 309 309 307
258 256 256 258 251 250 139 278 212 191 190 246 247 255 218 221 208 219 210 214 218 197 191 217 221 237 239 239 221 243 246 247 251 270 329 277 273 281 321 328 321 315 301 295
260 259 261 252 247 231 206 192 184 185 191 221 234 259 270 218 178 196 213 194 208 201 226 231 239 250 251 251 258 263 257 267 273 235 313 278 208 300 316 324 320 316 306 302
267 266 256 248 249 256 244 236 238 148 214 244 224 229 315 180 188 205 186 202 193 209 224 230 229 243 234 247 244 252 266 259 268 177 330 293 296 306 309 322 318 314 309 313
262 254 249 273 220 199 232 230 231 191 205 226 201 164 230 99 206 220 355 164 198 233 215 231 167 225 226 227 256 274 80 345 317 324 306 287 301 304 302 311 313 304 300 305
253 222 162 225 209 221 96 115 197 199 207 216 206 110 209 145 159 267 117 194 214 219 235 169 210 238 248 295 71 74 55 36 11 353 345 329 312 308 306 309 302 293 294 299
178 190 176 228 126 68 198 236 191 166 231 203 209 175 169 215 152 203 213 189 201 228 253 153 264 279 233 71 59 37 23 8 351 323 296 296 287 296 300 300 298 296 291 292
180 178 110 135 188 192 202 215 168 207 213 278 160 214 177 236 128 132 223 202 193 237 141 112 249 239 56 27 8 355 346 328 310 296 291 291 289 288 288 288 290 293 293 294
171 113 134 173 193 221 191 176 216 250 227 215 149 239 152 10 181 177 168 216 222 83 90 216 219 66 15 349 329 322 318 306 302 298 290 286 285 282 280 289 291 293 293 295
141 161 191 191 195 223 202 181 177 259 320 62 96 35 157 201 147 212 230 224 138 213 212 230 20 333 295 300 315 317 316 311 302 300 299 294 293 295 294 287 290 293 295 297
165 168 202 183 100 77 198 169 85 354 288 31 32 5 185 273 262 220 108 332 238 209 223 156 291 309 304 312 317 310 306 306 303 301 300 300 303 301 299 298 299 299 299 300
160 79 133 315 70 2 46 25 74 346 337 344 55 142 197 236 195 179 219 152 220 232 200 249 301 299 302 303 302 295 291 290 292 293 296 298 299 301 303 306 310 308 310 322
94 52 28 86 73 110 157 53 359 330 49 176 171 176 216 344 240 238 357 219 169 251 294 253 268 285 301 298 295 293 293 291 293 298 297 295 295 304 308 315 317 318 332 337